[[{"header":{"parameterUnit":"m.s-1","parameterCategory":1,"la1":30.2991,"la2":30.254,"lo1":-89.0895,"lo2":-89.0444,"dy":0.0017,"dx":0.0017,"nx":28,"ny":28,"refTime":"2025-07-28T09:00:00:Z","depth":0,"parameterNumber":2,"parameterNumberName":"U-component_of_WINDS"},"data":[0,0,0,0,0,0,0,0,0,0,0,0,0,0,0,0,0,0,0,0,0,0,0,0,0,0,0,0,0,0,0,0,0,0,0,0,0,0,0,0,0,0,0,0,0,0,0,0,0,0,0,0,0,0,0,0,0,0,1.9221,1.9221,0,1.9266,1.9266,1.9267,1.9213,1.9211,1.9209,1.9208,1.9258,1.9261,1.9264,0,0,0,0,0,0,0,0,0,0,0,0,0,1.9095,1.9097,1.9221,1.9221,1.9222,1.9266,1.9266,1.9267,1.9214,1.9211,1.9209,1.9207,1.9257,1.9261,1.9265,0,0,0,0,0,0,0,0,0,0,0,0,0,1.9146,1.9098,1.9221,1.9201,1.9199,1.9266,1.9266,1.9267,1.9214,1.9211,1.9208,1.9206,1.9256,1.9261,1.9265,1.9355,0,0,1.928,1.9282,0,0,0,0,0,0,0,0,1.9143,1.915,1.9203,1.9202,1.9201,1.9231,1.924,1.9297,1.9215,1.9209,1.9208,1.9204,1.9252,1.9257,1.9272,1.9357,1.936,1.928,1.9283,1.9285,1.9287,0,0,0,0,0,0,0,1.9139,1.9148,1.9239,1.9204,1.9202,1.9191,1.9195,1.9251,1.9247,1.9209,1.9205,1.9211,1.9251,1.9267,1.9273,1.936,1.928,1.9285,1.9288,1.9289,1.9525,1.9528,0,0,0,0,0,0,1.9137,1.9145,1.9237,1.924,1.9164,1.9196,1.92,1.9224,1.9246,1.9246,1.9214,1.9208,1.9261,1.9267,1.9274,1.9383,1.9285,1.929,1.9293,1.9522,1.9526,1.953,0,0,0,0,0,0,1.9135,1.9146,1.9235,1.9192,1.9202,1.9201,1.9229,1.9227,1.9243,1.9249,1.9249,1.9231,1.9259,1.9268,1.9336,1.9384,1.9292,1.9296,1.9518,1.9523,1.9528,1.96,0,0,0,0,0,0,1.9131,1.9145,1.9178,1.9193,1.9205,1.9295,1.9231,1.923,1.9251,1.9245,1.9266,1.9266,1.9257,1.9329,1.9341,1.9389,1.93,1.9514,1.952,1.9526,1.9593,1.9607,1.9619,0,0,0,0,0,1.9127,1.9197,1.918,1.9191,1.9245,1.9297,1.9304,1.9291,1.9255,1.9289,1.9294,1.9266,1.9377,1.9336,1.9349,1.94,1.9511,1.9518,1.9526,1.9588,1.9604,1.9618,0,0,0,0,0,0,1.9189,1.9198,1.918,1.9256,1.9276,1.9288,1.933,1.9309,1.934,1.9333,1.9317,1.9322,1.9395,1.9404,1.9359,1.9489,1.9438,1.9449,1.9481,1.9497,1.9509,1.9506,1.9304,0,0,0,0,0,1.9211,1.9251,1.9258,1.9325,1.9336,1.9332,1.9354,1.9342,1.9363,1.9371,1.938,1.9403,1.9443,1.947,1.9507,1.9594,1.96,1.9635,1.9648,1.9658,1.9668,1.9718,1.9735,1.9555,1.9555,1.9554,0,0,1.9258,1.9268,1.9295,1.9337,1.9352,1.9396,1.9339,1.9387,1.942,1.9379,1.9444,1.9452,1.9477,1.9555,1.959,1.9565,1.9719,1.9668,1.9676,1.968,1.9727,1.9744,1.976,1.956,1.9559,1.9558,0,0,1.9366,1.9377,1.9435,1.945,1.9472,1.9469,1.9484,1.9499,1.9503,1.9568,1.9538,1.9578,1.9647,1.9667,1.9686,1.9804,1.978,1.9816,1.9883,1.9931,1.9945,1.9958,2.0002,2.0018,1.9826,1.9826,1.9826,0,1.9422,1.9485,1.9468,1.9519,1.954,1.9503,1.9563,1.958,1.9614,1.963,1.96,1.9688,1.9702,1.9786,1.9815,1.983,1.9848,1.9814,1.9944,1.9957,1.9968,2.0011,2.0027,1.983,1.983,1.9829,1.9829,0,1.9554,1.9599,1.9643,1.9676,1.9702,1.9757,1.975,1.9779,1.9765,1.9766,1.9835,1.985,1.9891,1.991,1.9897,1.9993,1.9977,1.9946,1.9895,1.999,2.003,2.0046,1.9837,1.9835,1.9834,1.9833,0,0,1.9703,1.9726,1.9743,1.9758,1.9781,1.9816,1.9871,1.9909,1.9936,1.9961,2.0008,2.0068,2.004,2.0062,2.0051,2.0094,2.019,2.0058,2.0059,2.0084,2.03,2.0324,2.0343,2.0174,2.0177,2.0179,2.0299,0,1.9813,1.9906,1.9893,1.9984,2.0026,1.9993,2.0042,2.0062,2.0065,2.0103,2.0107,2.0151,2.0109,2.0123,2.0163,2.0169,2.0233,2.016,2.022,2.0223,2.0217,2.0363,2.0389,2.0501,2.0314,2.0316,2.0318,0,1.9953,1.9983,2.0078,2.0096,2.0113,2.0157,2.0193,2.0229,2.0252,2.0252,2.0277,2.0259,2.0317,2.0263,2.0344,2.0295,2.0319,2.0326,2.033,2.0337,2.0277,2.0376,2.0536,2.0554,2.0342,2.034,2.0338,0,2.0055,2.0119,2.0184,2.0198,2.022,2.0252,2.0263,2.0283,2.0308,2.034,2.0357,2.0396,2.0418,2.0449,2.0444,2.0405,2.0527,2.0473,2.0531,2.0531,2.0559,2.0558,2.0728,2.0572,2.0571,2.0571,2.0571,0,2.0181,2.0241,2.0231,2.0271,2.0339,2.0324,2.0391,2.0398,2.0417,2.0461,2.0434,2.0476,2.0465,2.0507,2.0503,2.0573,2.0582,2.0585,2.0584,2.0589,2.0589,2.0605,2.0598,2.0575,2.0575,2.0574,2.0573,0,2.0306,2.0301,2.0371,2.0386,2.0391,2.0441,2.0455,2.0494,2.0495,2.0551,2.0563,2.0565,2.0614,2.0611,2.0665,2.0663,2.0749,2.0738,2.0741,2.074,2.0799,2.0794,2.0987,2.1012,2.0838,2.0839,2.0841,0,2.0387,2.0433,2.0453,2.0479,2.0492,2.0535,2.0561,2.0548,2.0577,2.0608,2.0645,2.069,2.0726,2.0806,2.0814,2.0856,2.0847,2.0911,2.0853,2.0858,2.0851,2.0849,2.0855,2.0923,2.0925,2.0927,2.0928,0,2.0533,2.0529,2.0565,2.0602,2.0633,2.0662,2.0688,2.0712,2.0703,2.0736,2.0785,2.0813,2.0869,2.0916,2.0956,2.097,2.095,2.0946,2.0963,2.0969,2.097,2.0973,2.0775,2.0942,2.0941,2.094,2.0939,2.0939,2.064,2.068,2.0701,2.0744,2.0762,2.0787,2.0826,2.0832,2.0871,2.0915,2.0906,2.0962,2.0987,2.1039,2.1057,2.1102,2.1079,2.1102,2.1108,2.1115,2.1123,2.0961,2.1109,2.1109,2.1108,2.1108,2.1108,0,2.0787,2.0799,2.0838,2.0875,2.091,2.0885,2.0913,2.0944,2.0993,2.1017,2.1053,2.1111,2.1156,2.1168,2.1213,2.1247,2.1239,2.1259,2.1258,2.1262,2.1139,2.1122,2.1265,2.1265,2.1265,2.1265,2.1265,2.1265,2.0867,2.0934,2.0932,2.1009,2.1021,2.1074,2.1093,2.1117,2.1137,2.1202,2.1239,2.1246,2.1266,2.1313,2.1355,2.1357,2.1376,2.1401,2.14,2.1286,2.127,2.1255,2.1239,2.1405,2.1405,2.152,2.1521,2.1521]},{"header":{"parameterUnit":"m.s-1","parameterCategory":1,"la1":30.2991,"la2":30.254,"lo1":-89.0895,"lo2":-89.0444,"dy":0.0017,"dx":0.0017,"nx":28,"ny":28,"refTime":"2025-07-28T09:00:00:Z","depth":0,"parameterNumber":3,"parameterNumberName":"V-component_of_WINDS"},"data":[0,0,0,0,0,0,0,0,0,0,0,0,0,0,0,0,0,0,0,0,0,0,0,0,0,0,0,0,0,0,0,0,0,0,0,0,0,0,0,0,0,0,0,0,0,0,0,0,0,0,0,0,0,0,0,0,0,0,-0.8788,-0.8788,0,-0.8738,-0.8738,-0.8737,-0.8752,-0.8753,-0.8754,-0.8755,-0.8698,-0.8696,-0.8694,0,0,0,0,0,0,0,0,0,0,0,0,0,-0.889,-0.8888,-0.8788,-0.8787,-0.8787,-0.8738,-0.8738,-0.8737,-0.8751,-0.8753,-0.8754,-0.8755,-0.8699,-0.8696,-0.8693,0,0,0,0,0,0,0,0,0,0,0,0,0,-0.8843,-0.8887,-0.8788,-0.8788,-0.8788,-0.8739,-0.8738,-0.8737,-0.8751,-0.8753,-0.8754,-0.8756,-0.87,-0.8697,-0.8693,-0.8639,0,0,-0.8682,-0.868,0,0,0,0,0,0,0,0,-0.8846,-0.8839,-0.8789,-0.8788,-0.8788,-0.8753,-0.8753,-0.8704,-0.8751,-0.8765,-0.8755,-0.8757,-0.8715,-0.871,-0.8697,-0.8636,-0.8634,-0.8681,-0.8679,-0.8677,-0.8676,0,0,0,0,0,0,0,-0.8849,-0.8842,-0.8768,-0.8788,-0.8787,-0.8789,-0.8784,-0.8744,-0.8732,-0.8764,-0.8765,-0.8759,-0.8715,-0.8701,-0.8696,-0.8633,-0.8681,-0.8678,-0.8676,-0.8674,-0.8523,-0.8521,0,0,0,0,0,0,-0.8854,-0.8844,-0.877,-0.8767,-0.8821,-0.8786,-0.878,-0.8762,-0.8732,-0.8729,-0.8758,-0.876,-0.8706,-0.87,-0.8694,-0.8627,-0.8678,-0.8674,-0.8672,-0.8524,-0.8522,-0.852,0,0,0,0,0,0,-0.8856,-0.8847,-0.8772,-0.8806,-0.8796,-0.8783,-0.8762,-0.8761,-0.8747,-0.8728,-0.8725,-0.8746,-0.8707,-0.8699,-0.8652,-0.8625,-0.8672,-0.8669,-0.8527,-0.8524,-0.8521,-0.8494,0,0,0,0,0,0,-0.8859,-0.8848,-0.8828,-0.8805,-0.8795,-0.8733,-0.8761,-0.8758,-0.8741,-0.8743,-0.8716,-0.8713,-0.8708,-0.8658,-0.8649,-0.8621,-0.8666,-0.8529,-0.8525,-0.8522,-0.8497,-0.849,-0.8485,0,0,0,0,0,-0.8862,-0.8822,-0.8827,-0.8818,-0.877,-0.8731,-0.8725,-0.8722,-0.8739,-0.8718,-0.8705,-0.8714,-0.863,-0.8653,-0.8643,-0.8614,-0.853,-0.8526,-0.8522,-0.8499,-0.8491,-0.8485,0,0,0,0,0,0,-0.884,-0.8819,-0.8825,-0.8776,-0.8755,-0.8734,-0.8708,-0.8713,-0.8686,-0.8689,-0.8685,-0.8679,-0.863,-0.8617,-0.8643,-0.8558,-0.8582,-0.8576,-0.8569,-0.8561,-0.8555,-0.8558,-0.8663,0,0,0,0,0,-0.883,-0.8802,-0.8784,-0.8742,-0.8732,-0.8722,-0.8704,-0.8704,-0.8682,-0.8672,-0.8657,-0.8633,-0.8602,-0.8581,-0.8551,-0.8495,-0.8488,-0.847,-0.8464,-0.8459,-0.8453,-0.8421,-0.8412,-0.8507,-0.8507,-0.8507,0,0,-0.8808,-0.8793,-0.8775,-0.8738,-0.8722,-0.869,-0.8714,-0.868,-0.8656,-0.8667,-0.8621,-0.8609,-0.8582,-0.8531,-0.8507,-0.8518,-0.8426,-0.8454,-0.845,-0.8447,-0.8416,-0.8407,-0.8399,-0.8504,-0.8505,-0.8505,0,0,-0.8751,-0.8738,-0.8701,-0.8685,-0.8661,-0.8654,-0.8646,-0.8623,-0.8615,-0.857,-0.8577,-0.8547,-0.8494,-0.8474,-0.8457,-0.8392,-0.8397,-0.8382,-0.835,-0.8318,-0.8311,-0.8304,-0.8279,-0.827,-0.8377,-0.8377,-0.8377,0,-0.8726,-0.8682,-0.8681,-0.8647,-0.8629,-0.8639,-0.86,-0.8584,-0.855,-0.8537,-0.8551,-0.8483,-0.8466,-0.8408,-0.8392,-0.8379,-0.8367,-0.8385,-0.8312,-0.8305,-0.8299,-0.8275,-0.8266,-0.8375,-0.8375,-0.8375,-0.8375,0,-0.8651,-0.8619,-0.8592,-0.8561,-0.8541,-0.8504,-0.8496,-0.8475,-0.8476,-0.8467,-0.842,-0.84,-0.8365,-0.8352,-0.8352,-0.8294,-0.8302,-0.8314,-0.8337,-0.8288,-0.8265,-0.8256,-0.8372,-0.8373,-0.8373,-0.8374,0,0,-0.8579,-0.8548,-0.8538,-0.8523,-0.8497,-0.8472,-0.8435,-0.8402,-0.8383,-0.836,-0.8327,-0.8281,-0.8292,-0.8272,-0.827,-0.8243,-0.819,-0.8258,-0.8258,-0.8245,-0.8122,-0.8112,-0.8101,-0.8195,-0.8193,-0.8192,-0.8124,0,-0.8519,-0.8456,-0.8454,-0.8395,-0.8365,-0.8373,-0.834,-0.832,-0.831,-0.8281,-0.827,-0.8237,-0.8255,-0.8243,-0.8216,-0.8203,-0.8165,-0.8208,-0.8161,-0.816,-0.8166,-0.809,-0.8079,-0.8016,-0.8115,-0.8114,-0.8113,0,-0.844,-0.8415,-0.8354,-0.8331,-0.8318,-0.8289,-0.8258,-0.8232,-0.8207,-0.8202,-0.818,-0.8182,-0.8142,-0.8168,-0.8111,-0.814,-0.8121,-0.8111,-0.8108,-0.8102,-0.8132,-0.808,-0.7996,-0.7986,-0.8099,-0.81,-0.8101,0,-0.8391,-0.8342,-0.8299,-0.8286,-0.8259,-0.8238,-0.8225,-0.8203,-0.8183,-0.8156,-0.8142,-0.811,-0.8092,-0.8066,-0.8058,-0.8078,-0.8,-0.8026,-0.7992,-0.7992,-0.7974,-0.7975,-0.7885,-0.7965,-0.7965,-0.7966,-0.7966,0,-0.8323,-0.8285,-0.8277,-0.8249,-0.8206,-0.8203,-0.816,-0.8148,-0.8128,-0.8097,-0.8102,-0.8073,-0.8065,-0.8034,-0.8027,-0.7979,-0.7972,-0.7965,-0.7963,-0.7963,-0.7964,-0.7949,-0.7953,-0.7963,-0.7964,-0.7964,-0.7965,0,-0.8261,-0.8254,-0.8207,-0.8185,-0.8179,-0.8147,-0.8127,-0.81,-0.8092,-0.8052,-0.8043,-0.8028,-0.7991,-0.7982,-0.7937,-0.7932,-0.7876,-0.7879,-0.7884,-0.7884,-0.785,-0.7852,-0.7745,-0.773,-0.7822,-0.7822,-0.7821,0,-0.8217,-0.8188,-0.8163,-0.8144,-0.813,-0.8099,-0.8079,-0.8075,-0.8053,-0.8023,-0.7999,-0.7963,-0.7934,-0.7874,-0.7858,-0.7823,-0.7824,-0.7789,-0.7819,-0.782,-0.7821,-0.7822,-0.7818,-0.7783,-0.7782,-0.7781,-0.7781,0,-0.814,-0.8138,-0.811,-0.808,-0.8056,-0.8032,-0.8008,-0.7992,-0.7984,-0.7959,-0.7922,-0.79,-0.7854,-0.7817,-0.7783,-0.7767,-0.7771,-0.7772,-0.7762,-0.776,-0.7764,-0.7759,-0.7867,-0.7774,-0.7774,-0.7775,-0.7775,-0.7776,-0.8084,-0.8058,-0.8036,-0.8004,-0.7986,-0.7964,-0.7937,-0.7925,-0.7895,-0.7859,-0.7858,-0.7817,-0.7792,-0.7745,-0.7728,-0.7694,-0.7704,-0.769,-0.7686,-0.7683,-0.7679,-0.7771,-0.7688,-0.7688,-0.7688,-0.7689,-0.7689,0,-0.8005,-0.7992,-0.7962,-0.793,-0.7904,-0.7913,-0.7887,-0.7864,-0.7829,-0.7806,-0.7777,-0.7733,-0.7697,-0.7679,-0.7643,-0.7619,-0.762,-0.7609,-0.761,-0.7606,-0.7673,-0.7684,-0.7609,-0.7609,-0.7609,-0.7609,-0.7609,-0.7609,-0.7961,-0.7916,-0.7911,-0.7857,-0.7843,-0.7805,-0.7789,-0.7768,-0.7749,-0.7701,-0.7671,-0.766,-0.7638,-0.76,-0.7567,-0.7562,-0.7547,-0.7535,-0.7531,-0.7593,-0.7601,-0.7609,-0.762,-0.7532,-0.7532,-0.7467,-0.7466,-0.7466]}]]